FW6932 Weather Reports


Display with metric or nautical units.
time (UTC)temp
F
wind
direction
speed
MPH
gust
MPH
rain 1hr
in
rain 24hr
in
rain mn
in
humidity
%
barometer
mb
20260905203027 64 285 2.0 2.0 0.00 0.02 0.02 57 1024.4
20260905202051 64 285 3.0 3.0 0.00 0.02 0.02 55 1024.4
20260905201011 66 333 3.0 3.0 0.00 0.02 0.02 53 1024.4
20260905195827 66 316 3.0 3.0 0.00 0.02 0.02 53 1024.4
20260905194851 66 341 4.0 5.0 0.00 0.02 0.02 53 1024.4
20260905193831 66 337 2.0 2.0 0.00 0.02 0.02 52 1024.0
20260905192627 66 343 0.0 0.0 0.00 0.02 0.02 52 1024.1
20260905191651 67 24 1.0 1.0 0.00 0.02 0.02 51 1023.9
20260905190611 66 349 3.0 3.0 0.00 0.02 0.02 50 1023.7
20260905185428 66 348 0.0 0.0 0.00 0.02 0.02 50 1023.7
20260905184451 67 12 3.0 3.0 0.00 0.02 0.02 49 1023.6
20260905183413 67 350 0.0 1.0 0.00 0.02 0.02 48 1023.6
20260905182227 69 263 4.0 5.0 0.00 0.02 0.02 46 1023.3
20260905181251 69 272 6.0 6.0 0.00 0.02 0.02 45 1023.1
20260905180211 69 246 9.0 11.0 0.00 0.02 0.02 45 1023.3
20260905175027 70 272 6.0 7.0 0.00 0.02 0.02 45 1023.1
20260905174051 70 260 8.0 11.0 0.00 0.02 0.02 44 1022.8
20260905173011 71 243 10.0 11.0 0.00 0.02 0.02 43 1022.7
20260905171812 71 280 8.0 10.0 0.00 0.02 0.02 44 1022.5
20260905170628 71 277 6.0 8.0 0.00 0.02 0.02 44 1022.5
20260905165654 71 276 9.0 10.0 0.00 0.02 0.02 43 1022.2
20260905164613 72 250 10.0 11.0 0.00 0.02 0.02 43 1022.2
20260905163428 72 272 6.0 7.0 0.00 0.02 0.02 43 1022.1
20260905162452 73 268 10.0 13.0 0.00 0.02 0.02 42 1021.9
20260905161412 73 351 5.0 6.0 0.00 0.02 0.02 42 1022.0
20260905160228 74 266 6.0 7.0 0.00 0.02 0.02 41 1021.8
20260905155252 74 266 5.0 7.0 0.00 0.02 0.02 42 1021.5
20260905154212 74 213 9.0 11.0 0.00 0.02 0.02 43 1021.4
20260905153303 74 265 10.0 11.0 0.00 0.02 0.02 43 1021.4
20260905152246 74 326 11.0 15.0 0.00 0.02 0.02 43 1021.4
20260905151252 74 270 14.0 18.0 0.00 0.02 0.02 43 1021.7
20260905150234 74 270 8.0 9.0 0.00 0.02 0.02 45 1021.4
20260905145220 74 311 9.0 10.0 0.00 0.02 0.02 46 1021.6
20260905144255 73 262 4.0 5.0 0.00 0.02 0.02 49 1021.8
20260905143312 73 257 13.0 16.0 0.00 0.02 0.02 49 1021.7
20260905142213 74 280 8.0 11.0 0.00 0.02 0.02 49 1021.8
20260905141132 73 233 14.0 15.0 0.00 0.02 0.02 48 1021.9
20260905140157 73 311 9.0 10.0 0.00 0.02 0.02 49 1022.0
20260905135138 73 276 6.0 9.0 0.00 0.02 0.02 49 1021.9
20260905134156 74 297 7.0 8.0 0.00 0.02 0.02 49 1021.9
20260905133054 73 295 8.0 10.0 0.00 0.02 0.02 50 1021.9
20260905131901 73 341 5.0 6.0 0.00 0.02 0.02 52 1021.9
20260905130901 72 251 6.0 9.0 0.00 0.02 0.02 52 1022.0
20260905125900 71 6 6.0 7.0 0.00 0.02 0.02 54 1022.1
20260905124842 71 279 11.0 14.0 0.00 0.02 0.02 53 1021.9
20260905123828 71 251 10.0 11.0 0.00 0.02 0.02 53 1022.2
20260905122853 72 232 6.0 8.0 0.00 0.02 0.02 54 1022.2
20260905121812 71 245 13.0 14.0 0.00 0.02 0.02 53 1022.1
20260905120645 71 241 12.0 16.0 0.00 0.02 0.02 52 1022.6
20260905115642 71 234 11.0 16.0 0.00 0.02 0.02 54 1022.1
20260905114701 71 269 11.0 13.0 0.00 0.02 0.02 54 1022.3
20260905113653 71 321 7.0 9.0 0.00 0.02 0.02 57 1022.1
20260905112618 70 330 6.0 7.0 0.00 0.02 0.02 58 1022.3
20260905111636 69 3 5.0 7.0 0.00 0.02 0.02 60 1022.5
20260905110701 68 290 9.0 9.0 0.00 0.02 0.02 63 1022.4
20260905105620 69 289 11.0 14.0 0.00 0.02 0.02 60 1022.3
20260905104644 67 296 7.0 8.0 0.00 0.02 0.02 66 1022.5
20260905103652 67 321 5.0 6.0 0.00 0.02 0.02 68 1022.4
20260905102612 67 312 5.0 9.0 0.00 0.02 0.02 70 1022.4
20260905101428 65 320 9.0 11.0 0.00 0.02 0.02 68 1022.6
20260905100420 66 275 10.0 11.0 0.00 0.02 0.02 67 1022.5
20260905095443 65 301 8.0 10.0 0.00 0.02 0.02 70 1022.6
20260905094435 63 341 3.0 3.0 0.00 0.02 0.02 75 1022.9
20260905093412 63 359 0.0 0.0 0.00 0.02 0.02 80 1022.8
20260905092333 62 254 4.0 5.0 0.00 0.02 0.02 76 1022.8
20260905091220 62 276 7.0 8.0 0.00 0.02 0.02 78 1023.5
20260905090033 61 292 7.0 8.0 0.01 0.02 0.02 80 1022.7
20260905085028 60 280 8.0 11.0 0.02 0.02 0.02 84 1023.2
20260905084113 61 337 2.0 3.0 0.02 0.02 0.02 83 1022.7
20260905083013 61 260 6.0 8.0 0.02 0.02 0.02 81 1023.5
20260905081812 60 247 5.0 7.0 0.02 0.02 0.02 84 1022.5
20260905080648 62 78 1.0 2.0 0.01 0.01 0.01 78 1021.4
20260905075653 63 121 2.0 2.0 0.00 0.00 0.00 72 1022.2
20260905074611 63 302 4.0 6.0 0.00 0.00 0.00 70 1022.6
20260905073428 62 348 4.0 5.0 0.00 0.00 0.00 74 1021.7
20260905072451 63 260 5.0 7.0 0.00 0.00 0.00 70 1022.5
20260905071412 63 270 6.0 7.0 0.00 0.00 0.00 70 1022.5
20260905070228 63 263 7.0 9.0 0.00 0.00 0.00 66 1021.1
20260905065252 65 293 10.0 16.0 0.00 0.00 0.00 62 1022.2
20260905064211 66 304 11.0 18.0 0.00 0.00 0.00 61 1021.6
20260905063028 66 308 11.0 11.0 0.00 0.00 0.00 61 1021.0
20260905062053 66 326 13.0 18.0 0.00 0.00 0.00 60 1020.9
20260905061013 67 279 9.0 13.0 0.00 0.00 0.00 60 1020.6
20260905055828 67 347 13.0 16.0 0.00 0.00 0.00 61 1020.7
20260905054851 67 352 13.0 17.0 0.00 0.00 0.00 66 1020.3
20260905053812 68 321 11.0 14.0 0.00 0.00 0.00 65 1020.3
20260905052627 68 312 8.0 11.0 0.00 0.00 0.00 63 1020.6
20260905051652 68 330 10.0 11.0 0.00 0.00 0.00 63 1019.9
20260905050611 68 314 15.0 18.0 0.00 0.00 0.00 64 1020.4
20260905045449 68 327 7.0 9.0 0.00 0.00 0.00 66 1019.1
20260905044452 68 22 8.0 9.0 0.00 0.00 0.00 67 1019.2
20260905043412 68 358 5.0 7.0 0.00 0.00 0.00 67 1019.1
20260905042228 68 5 4.0 5.0 0.00 0.00 0.00 69 1018.4
20260905041252 68 347 5.0 7.0 0.00 0.00 0.00 70 1018.0
20260905040212 69 321 7.0 10.0 0.00 0.00 0.00 68 1017.8
20260905035027 69 273 7.0 7.0 0.00 0.00 0.00 67 1017.5
20260905034053 69 286 9.0 10.0 0.00 0.00 0.00 66 1016.7
20260905033012 70 333 8.0 10.0 0.00 0.00 0.00 65 1016.8
20260905031848 70 291 7.0 8.0 0.00 0.00 0.00 66 1016.6
20260905030852 71 287 5.0 7.0 0.00 0.00 0.00 65 1016.7
20260905025812 70 327 7.0 8.0 0.00 0.00 0.00 67 1017.0
20260905024648 70 323 10.0 11.0 0.00 0.00 0.00 67 1016.8
20260905023651 68 304 7.0 8.0 0.00 0.00 0.00 71 1016.8
20260905022612 69 287 6.0 7.0 0.00 0.00 0.00 70 1016.6
20260905021428 68 342 2.0 2.0 0.00 0.00 0.00 69 1017.0
20260905020453 70 114 3.0 3.0 0.00 0.00 0.00 65 1017.0
20260905015412 67 253 4.0 5.0 0.00 0.00 0.00 71 1016.6
20260905014229 67 267 2.0 2.0 0.00 0.00 0.00 72 1016.8
20260905013252 66 258 2.0 2.0 0.00 0.00 0.00 73 1016.7
20260905012212 68 347 0.0 1.0 0.00 0.00 0.00 69 1016.4
20260905011028 67 113 0.0 1.0 0.00 0.00 0.00 70 1016.4
20260905010052 67 217 2.0 2.0 0.00 0.00 0.00 71 1016.4
20260905005012 66 266 2.0 2.0 0.00 0.00 0.00 72 1016.3
20260905003828 67 257 1.0 2.0 0.00 0.00 0.00 70 1016.6
20260905002852 66 253 1.0 2.0 0.00 0.00 0.00 71 1016.5
20260905001812 66 257 4.0 6.0 0.00 0.00 0.00 70 1016.1
20260905000628 66 345 0.0 1.0 0.00 0.00 0.00 71 1016.0
20260904235652 67 265 2.0 2.0 0.00 0.00 0.00 69 1016.1
20260904234612 67 117 1.0 1.0 0.00 0.00 0.00 70 1016.2
20260904233548 67 252 2.0 2.0 0.00 0.00 0.00 69 1016.1
20260904232512 65 234 4.0 5.0 0.00 0.00 0.00 71 1016.2
20260904231414 67 243 3.0 3.0 0.00 0.00 0.00 70 1016.2
20260904230434 66 246 4.0 5.0 0.00 0.00 0.00 70 1016.3
20260904225522 66 212 3.0 3.0 0.00 0.00 0.00 71 1016.3
20260904224421 66 342 0.0 0.0 0.00 0.00 0.00 70 1016.2
20260904223433 66 115 0.0 0.0 0.00 0.00 0.00 71 1016.2
20260904222452 65 354 1.0 1.0 0.00 0.00 0.00 72 1016.2
20260904221412 64 253 1.0 1.0 0.00 0.00 0.00 74 1016.2
20260904220437 66 120 1.0 1.0 0.00 0.00 0.00 71 1016.4
20260904215448 66 162 3.0 3.0 0.00 0.00 0.00 70 1016.1
20260904214452 66 260 2.0 2.0 0.00 0.00 0.00 73 1016.3
20260904213432 66 256 3.0 3.0 0.00 0.00 0.00 71 1016.3
20260904212228 67 223 2.0 2.0 0.00 0.00 0.00 69 1016.3
20260904211252 66 350 0.0 0.0 0.00 0.00 0.00 72 1016.4
20260904210214 67 165 2.0 2.0 0.00 0.00 0.00 71 1017.0
20260904205028 68 345 0.0 0.0 0.00 0.00 0.00 67 1016.5
20260904204052 67 342 2.0 2.0 0.00 0.00 0.00 69 1016.6